Location: *
(49.4547°N, 7.9131°E)
Time: 08:20:28
(UTC+00:00)

Cosmos 676 Rocket - Pass Details

Date: 22 September 2019
Orbit: 755 x 784 km, 74.0° (Epoch: 17 October)

Event Time Altitude Azimuth Distance (km) Brightness Sun altitude
Rises 18:17:22 0° 339° (NNW) 3,262 7.7 -8.9°
Reaches altitude 10° 18:19:51 10° 345° (NNW) 2,326 6.9 -9.3°
Maximum altitude 18:24:58 49° 60° (ENE) 992 4.3 -10.1°
Drops below altitude 10° 18:30:00 10° 135° (SE) 2,293 6.0 -10.9°
Enters shadow 18:30:07 10° 135° (SE) 2,333 6.0 -11.0°
